Regional Weather Roundup
Issued by NWS

Home | Current Version | Previous Version | Text Only | Print | Product List | Glossary Off
Versions: 1 2 3 4 5 6 7 8 9 10 11 12 13 14 15 16 17 18 19 20 21 22 23 24 25 26 27

000
ASUS45 KCYS 300710
RWRWY

WYOMING REGIONAL WEATHER ROUNDUP
NATIONAL WEATHER SERVICE CHEYENNE WY
100 AM MDT SUN APR 30 2017

NOTE:  "FAIR" INDICATES FEW OR NO CLOUDS BELOW 12,000 FEET
WITH NO SIGNIFICANT WEATHER AND/OR OBSTRUCTIONS TO VISIBILITY.

WYZ001-300800-
YELLOWSTONE NATIONAL PARK

CITY           SKY/WX    TMP DP  RH WIND       PRES   REMARKS
LK YELLOWSTONE   N/A     19  17  92 CALM      30.19F
W YELLOWSTONE  NOT AVBL

$$
WYZ002>013-054>058-071-098>099-300800-
NORTHERN WYOMING

CITY           SKY/WX    TMP DP  RH WIND       PRES   REMARKS
JACKSON        FAIR      30  25  80 SE3       30.18F
CODY           FAIR      37  28  70 SW5       30.12F WCI  33
GREYBULL       FAIR      37  27  67 E8        30.14F WCI  31
WORLAND        FAIR      34  30  85 S9        30.14F WCI  27
SHERIDAN       FAIR      30  22  72 CALM      30.11F
BUFFALO        FAIR      29  16  58 SW6       30.12F WCI  23
GILLETTE       FAIR      31  20  63 S7        30.14F WCI  24
HULETT         FAIR      30  21  69 S8        30.15F WCI  23
NEWCASTLE      FAIR      30  27  86 CALM      30.17F

$$
WYZ014>020-022>026-101>103-300800-
CENTRAL WYOMING

CITY           SKY/WX    TMP DP  RH WIND       PRES   REMARKS
BIG PINEY      FAIR      25  19  78 SE8       30.20R WCI  16
PINEDALE       FAIR      23  19  86 CALM      30.21S
DUBOIS         FAIR      25  19  80 CALM      30.17S
LANDER         FAIR      29  19  66 W10       30.16F WCI  20
RIVERTON       FAIR      27  21  78 S5        30.18F WCI  22
CASPER         FAIR      26  22  84 W7        30.17F WCI  18
DOUGLAS        FAIR      26  22  84 CALM      30.18F

$$
WYZ021-027>030-104>119-300800-
SOUTHERN WYOMING

CITY           SKY/WX    TMP DP  RH WIND       PRES   REMARKS
EVANSTON       FAIR      30  21  69 S7        30.22F WCI  23
KEMMERER         N/A     32  23  69 N3        30.21S
FORT BRIDGER   FAIR      34  21  60 W12       30.24S WCI  25
ROCK SPRINGS   FAIR      29  19  66 S6        30.19F WCI  23
DIXON            N/A     28  22  78 CALM      30.20F
RAWLINS        FAIR      20  16  84 N6        30.18F WCI  12
SARATOGA       FAIR      21  19  93 CALM      30.17F
LARAMIE        FAIR      14  11  87 SE6       30.14F WCI   5
CHEYENNE       FAIR      27  15  61 NW14G21   30.11F WCI  16
TORRINGTON     FAIR      30  24  78 NW8       30.14  WCI  22
PINE BLUFFS    FAIR      30  21  69 NW16      30.10F WCI  19

$$




USA.gov is the U.S. government's official web portal to all federal, state and local government web resources and services.